Location: Waco, TX
(31.5480°N, 97.1670°W)
Time: 03:06:34
(UTC-05:00)

ISS - Pass Details

Date: 17 September 2017
Orbit: 401 x 407 km, 51.6° (Epoch: 22 September)

Event Time Altitude Azimuth Distance (km) Brightness Sun altitude
Rises 01:01:02 0° 271° (W) 2,316 - -55.9°
Reaches altitude 10° 01:04:17 10° 307° (NW) 1,461 - -56.0°
Maximum altitude 01:05:29 12° 328° (NNW) 1,372 - -56.0°
Drops below altitude 10° 01:06:42 10° 350° (N) 1,464 - -56.1°
Sets 01:09:59 0° 25° (NNE) 2,328 - -56.1°
